User: anonymous   Login
Location: Brno
(49.2000°N, 16.6330°E)
Time: 21:20:39
(UTC+02:00)
Language:

BREEZE M DEB (TANK) - Orbit

View from above orbital plane
View from above orbital plane
View from above satellite
View from above satellite

Ground track
Ground track

The orbit data is extracted from the following two-line orbital elements,

1 28359U 04022B   15106.91108468  .00015436  00000-0  15882-2 0  9990
2 28359 049.5411 115.0912 4708688 276.6950 033.7974 06.14530370236337
Epoch (UTC): 16 April 2015 21:51:57
Eccentricity: 0.4708688
inclination: 49.5411°
perigee height: 284 km
apogee height: 12140 km
right ascension of ascending node: 115.0912°
argument of perigee: 276.6950°
revolutions per day: 6.14530370
mean anomaly at epoch: 33.7974°
orbit number at epoch: 23633

The dashed part of the orbit path shows where the satellite is in the earth's shadow,  

DLR